Вернуться в каталог

CZ-4 DEB

АктивенSSO
NORAD 27688·DEBRIS·🇨🇳 China

Запущен Oct 14, 1999 с Taiyuan Satellite Launch Center

Loading…

Ближайшие Пролёты (ближайшие 24 часа)

TLE

СвежийSource: Space-Track

Эпоха: Sep 12, 2026, 22:46 UTC

1 27688U 99057MU  26255.94883009  .00000918  00000-0  22363-3 0  9999
2 27688  98.4917 322.4914 0079349 338.6110 196.1129 14.53356077739942

Отслеживайте CZ-4 DEB в реальном времени с AllMySat

Download on the App Store